Regional Weather Roundup
Issued by NWS

Home | Current Version | Previous Version | Text Only | Print | Product List | Glossary Off
Versions: 1 2 3 4 5 6 7 8 9 10 11 12 13 14 15 16 17 18 19 20 21 22 23 24 25 26 27 28 29 30 31 32 33 34 35 36 37 38 39 40 41 42 43 44 45 46 47 48 49 50

000
ASUS44 KMEG 270610
RWRTN
TENNESSEE HOURLY STATE WEATHER ROUNDUP
NATIONAL WEATHER SERVICE MEMPHIS TN
1200 AM CST FRI FEB 27 2015

TNZ002-004-019-021-049-052-054-088>092-270700-
WEST TENNESSEE

CITY           SKY/WX    TMP DP  RH WIND       PRES   REMARKS
MEMPHIS INTL   FAIR      26  13  57 NE16      30.43S WCI  14
NWS MEMPHIS      N/A     24 N/A N/A MISG        N/A
JACKSON        CLOUDY    25  14  63 N18       30.42R WCI  11
DYERSBURG      CLOUDY    25   5  42 N13       30.48R WCI  13
UNION CITY     CLEAR     18  12  79 N12       30.44R WCI   5
PARIS          CLOUDY    19  16  86 N8        30.41R WCI   9
LEXINGTON      CLOUDY    25  18  74 N10       30.37R WCI  15
SAVANNAH       CLOUDY    27  19  74 N8        30.37R WCI  18
$$

TNZ008-025-027-028-033-062-065-066-270700-
NORTH MIDDLE TENNESSEE

CITY           SKY/WX    TMP DP  RH WIND       PRES   REMARKS
NASHVILLE      CLOUDY    26  16  65 NW13      30.36R WCI  15
CLARKSVILLE    CLEAR     20  15  81 N9        30.40R WCI   9
SMYRNA         CLOUDY    27  17  65 N13       30.36R WCI  16
COOKEVILLE     CLOUDY    27  23  86 N6        30.27R WCI  20
CROSSVILLE     CLOUDY    27  21  78 N8        30.20S WCI  19
$$

TNZ061-075-076-078-094-096-097-270700-
SOUTH MIDDLE TENNESSEE

CITY           SKY/WX    TMP DP  RH WIND       PRES   REMARKS
FAYETTEVILLE   CLOUDY    27  21  80 N16         N/A  WCI  14
TULLAHOMA      MOCLDY    25  19  80 N10       30.28R WCI  15
WINCHESTER     CLOUDY    28  21  74 N10       30.28R WCI  19
MCMINNVILLE    MOCLDY    27  21  80 N10       30.27R WCI  17
COLUMBIA       CLOUDY    27  25  93 N9        30.32R WCI  17
SHELBYVILLE    CLOUDY    27  19  74 N15       30.32R WCI  15
$$

TNZ017-018-042-046-047-270700-
NORTHEAST TENNESSEE

CITY           SKY/WX    TMP DP  RH WIND       PRES   REMARKS
TRI CITIES     CLOUDY    28  28 100 CALM      30.17R FOG
ELIZABETHTON   CLOUDY    28  27  93 W3        30.16R
$$

TNZ012-013-036-069-073-074-270700-
CENTRAL EAST TENNESSEE

CITY           SKY/WX    TMP DP  RH WIND       PRES   REMARKS
KNOXVILLE      CLOUDY    32  26  78 N6        30.21R WCI  26
OAK RIDGE      CLOUDY    34  21  59 CALM      30.23R
GATLINBURG     CLOUDY    28  27  93 CALM      30.20R
MORRISTOWN     CLOUDY    32  21  64 N5        30.19R WCI  27
$$

TNZ083-085-099-270700-
SOUTHEAST TENNESSEE

CITY           SKY/WX    TMP DP  RH WIND       PRES   REMARKS
CHATTANOOGA    CLEAR     32  23  69 N7        30.25R WCI  26
$$

SKY/WX REPORTED AS FAIR MEANS FEW OR NO CLOUDS BELOW
12 THOUSAND FEET.



USA.gov is the U.S. government's official web portal to all federal, state and local government web resources and services.